Weather History for KCZZ - September, 2013

Change the Weather History Date:

Friday, September 13, 2013

  Actual Average Record
Temperature  
Mean Temperature 73 °F 70 °F  
Max Temperature 94 °F 91 °F 105 °F (1971)
Min Temperature 52 °F 49 °F 33 °F (2005)
Degree Days  
Heating Degree Days 0 1  
Month to date heating degree days 0 11  
Since 1 July heating degree days 2 25  
Cooling Degree Days 8 6  
Month to date cooling degree days 143 91  
Year to date cooling degree days 860 741  
Growing Degree Days 24 (Base 50)    
Moisture  
Dew Point 38 °F    
Average Humidity 37    
Maximum Humidity 64    
Minimum Humidity 10    
Precipitation  
Precipitation 0.00 in 0.01 in 0.33 in (1959)
Month to date precipitation 1.51 0.16  
Year to date precipitation 6.72 11.33  
Since 1 July precipitation 1.94 1.18  
Snow  
Snow 0.00 in - - ()
Month to date snowfall 0.0  
Year to date snowfall 0.0  
Since 1 July snowfall 0.0  
Snow Depth 0.00 in    
Sea Level Pressure  
Sea Level Pressure 29.71 in    
Wind  
Wind Speed 8 mph (North)    
Max Wind Speed 17 mph    
Max Gust Speed 26 mph    
T = Trace of Precipitation, MM = Missing Value Source: NWS Daily Summary

Daily Weather History Graph

Daily Weather History Graph

Search for Another Location

Airport or City:

Trip Planner

Search our weather history database for the weather conditions in past years. The results will help you decide how hot, cold, wet, or windy it might be!

Date:

Astronomy

Sep. 13, 2013 Rise Set
Actual Time 6:28 AM PDT 6:54 PM PDT
Civil Twilight 6:03 AM PDT 7:18 PM PDT
Nautical Twilight 5:34 AM PDT 7:47 PM PDT
Astronomical Twilight 5:05 AM PDT 8:17 PM PDT
Moon 2:34 PM PDT (9/13) 12:16 AM PDT (9/13)
Length of Visible Light 13h 15m
Length of Day
12h 25m
Waxing Gibbous, 62% of the Moon is Illuminated
Sep 13
Waxing Gibbous
Sep 19
Full
Sep 26
Last Quarter
Oct 4
New
Oct 11
First Quarter

Hourly Weather History & Observations

Time (PDT) Temp. Dew Point Humidity Pressure Visibility Wind Dir Wind Speed Gust Speed Precip Events Conditions
12:52 AM 59.0 °F 44.1 °F 58% 29.79 in - NE 5.8 mph - N/A   Unknown
1:52 AM 59.0 °F 43.0 °F 55% 29.79 in - ENE 5.8 mph - N/A   Unknown
2:52 AM 55.9 °F 43.0 °F 62% 29.78 in - NE 8.1 mph - N/A   Unknown
3:52 AM 55.9 °F 42.1 °F 60% 29.77 in - NNE 4.6 mph - N/A   Unknown
4:52 AM 55.0 °F 42.1 °F 62% 29.76 in - NE 6.9 mph - N/A   Unknown
5:52 AM 55.0 °F 41.0 °F 59% 29.77 in - NNE 3.5 mph - N/A   Unknown
6:52 AM 54.0 °F 41.0 °F 62% 29.78 in - ENE 6.9 mph - N/A   Unknown
7:52 AM 62.1 °F 43.0 °F 50% 29.78 in - NE 5.8 mph - N/A   Unknown
8:52 AM 73.9 °F 42.1 °F 32% 29.76 in - Calm Calm - N/A   Unknown
9:52 AM 82.9 °F 37.0 °F 19% 29.75 in - SSW 3.5 mph - N/A   Unknown
10:52 AM 90.0 °F 27.0 °F 10% 29.73 in - WNW 10.4 mph - N/A   Unknown
11:52 AM 91.9 °F 26.1 °F 9% 29.70 in - WNW 9.2 mph - N/A   Unknown
12:52 PM 93.9 °F 28.0 °F 10% 29.68 in - West 11.5 mph 20.7 mph N/A   Unknown
1:52 PM 93.0 °F 30.9 °F 11% 29.66 in - West 13.8 mph 23.0 mph N/A   Unknown
2:52 PM 91.9 °F 32.0 °F 12% 29.65 in - WSW 12.7 mph 19.6 mph N/A   Unknown
3:52 PM 93.0 °F 35.1 °F 13% 29.64 in - West 10.4 mph 20.7 mph N/A   Unknown
4:52 PM 91.0 °F 34.0 °F 13% 29.64 in - West 11.5 mph - N/A   Unknown
5:52 PM 88.0 °F 30.0 °F 12% 29.64 in - WNW 10.4 mph - N/A   Unknown
6:52 PM 82.9 °F 36.0 °F 19% 29.65 in - WSW 3.5 mph - N/A   Unknown
7:52 PM 78.1 °F 42.1 °F 28% 29.66 in - NW 4.6 mph - N/A   Unknown
8:52 PM 66.9 °F 44.1 °F 44% 29.69 in - NE 4.6 mph - N/A   Unknown
9:52 PM 64.9 °F 43.0 °F 45% 29.68 in - NE 4.6 mph - N/A   Unknown
10:52 PM 63.0 °F 44.1 °F 50% 29.68 in - NE 4.6 mph - N/A   Unknown
11:52 PM 61.0 °F 44.1 °F 54% 29.68 in - NE 4.6 mph - N/A   Unknown